Regional Weather Roundup
Issued by NWS Cleveland, OH

Home | Current Version | Previous Version | Graphics & Text | Print | Product List | Glossary On
Versions: 1 2 3 4 5 6 7 8 9 10 11 12 13 14 15 16 17 18 19 20 21 22 23 24 25 26 27 28 29 30 31 32 33 34 35 36 37 38 39 40 41 42 43 44 45 46 47 48 49 50
000
ASUS41 KCLE 300002
RWRCLE
OHIO REGIONAL WEATHER ROUNDUP
NATIONAL WEATHER SERVICE CLEVELAND, OH
800 PM EDT SAT AUG 29 2015

NOTE: "FAIR" INDICATES FEW OR NO CLOUDS BELOW 12,000 FEET WITH NO
SIGNIFICANT WEATHER AND/OR OBSTRUCTIONS TO VISIBILITY.

OHZ001>008-015>018-024>027-034-035-043-044-300100-
   NORTHWEST OHIO

CITY           SKY/WX    TMP DP  RH WIND       PRES   REMARKS
DEFIANCE       LGT RAIN  73  69  87 N5        30.04S
FINDLAY        CLOUDY    76  68  76 CALM      30.03F
TOLEDO EXPRESS CLOUDY    72  69  90 NE3       30.03F
TOLEDO EXEC    CLOUDY    72  68  87 CALM      30.04F
LIMA           CLOUDY    74  69  85 CALM      30.04F
$$

OHZ009>014-019>023-028>033-038-089-300100-
   NORTHEAST OHIO

CITY           SKY/WX    TMP DP  RH WIND       PRES   REMARKS
CLE-HOPKINS    LGT RAIN  74  65  73 N7        30.08R
CLE-LAKEFRONT  LGT RAIN  74  64  71 N7        30.04S
CUY CO. ARPT   CLOUDY    70  64  83 E12       30.06F
LORAIN-ELYRIA  CLOUDY    74  62  66 NE5       30.06S
ASHTABULA      MOCLDY    71  62  73 NE3       30.08F
AKRON-CANTON   MOCLDY    76  62  62 S3        30.07F
WOOSTER        CLOUDY    75  64  68 SW3       30.07F
MANSFIELD      CLOUDY    76  65  68 S7        30.07F
YOUNGSTOWN     MOCLDY    73  64  73 E5        30.07F
$$

OHZ042-051>053-060>062-070>072-077>081-300100-
  SOUTHWEST OHIO

CITY           SKY/WX    TMP DP  RH WIND       PRES   REMARKS
CINC-COVINGTON NOT AVBL
CINC-LUNKEN    CLOUDY    74  72  93 CALM      30.05S
HAMILTON       MOCLDY    75  69  81 CALM      30.05S
DAYTON         MOCLDY    76  62  62 S6        30.06S
WRIGHT-PAT AFB MOCLDY    76  65  68 SE6       30.05S
DAYTON GENERAL MOCLDY    75  64  68 S5        30.05F
WILMINGTON     HVY RAIN  72  66  81 SE6G20    30.07S
$$

OHZ036-037-039>041-045>050-054>059-063>069-073>076-082>088-300100-
  CENTRAL AND SOUTHEAST OHIO

CITY           SKY/WX    TMP DP  RH WIND       PRES   REMARKS
COLUMBUS       LGT RAIN  70  63  78 NE6       30.05F
OSU AIRPORT    CLOUDY    77  62  59 S5        30.06S
BOLTON FIELD   NOT AVBL
RICKENBACK AFB CLOUDY    78  66  66 CALM      30.05S
NEWARK         CLOUDY    73  69  87 N7        30.07R
MARION         CLOUDY    75  65  70 S6        30.05F
LANCASTER      MOCLDY    78  65  63 S5        30.07S
ZANESVILLE     PTCLDY    80  60  50 SW6       30.07S
NEW PHILLY     MOCLDY    75  67  76 CALM      30.07S
$$


USA.gov is the U.S. government's official web portal to all federal, state and local government web resources and services.